Location: Bernay
(48.6766°N, 2.9386°E)
Time: 21:31:34
(UTC+00:00)

Cosmos 1953 - Pass Details

Date: 12 January 2026
Orbit: 474 x 489 km, 82.5° (Epoch: 18 February)

Event Time Altitude Azimuth Distance (km) Brightness Sun altitude
Rises 17:14:31 0° 359° (N) 2,586 5.5 -9.4°
Reaches altitude 10° 17:16:50 10° 11° (N) 1,700 4.5 -9.8°
Maximum altitude 17:20:07 29° 73° (ENE) 937 2.9 -10.3°
Drops below altitude 10° 17:23:23 10° 135° (SE) 1,688 4.6 -10.8°
Sets 17:25:41 0° 146° (SSE) 2,564 5.6 -11.1°
